STARLINK-32652, 62234

Orbit data source: Space-Track

STARLINK-32652, 62234 is a payload satellite owned by SpaceX/Seattle (US) in LEO that was launched on Thu, 05 Dec 2024 UTC via an FALCON 9 launch vehicle from the Air Force Western Test Range (AFWTR). Payload-class satellites include a variety of spacecraft equipped with specific instruments for various scientific and technological missions. These include communications satellites like Starlink; space stations such as the ISS; scientific satellites like the Hubble; Earth observation satellites from companies like Planet Labs, Umbra, and HawkEye 360; GPS; miniature CubeSats for education and research; and military/defense satellites.

Loading next visibility...
Identifier
62234, 2024-231S
Orbit
LEO
Country
Flag of USUS
Related business
Manufacturer
SpaceX/Seattle
Mission
Operational Commercial Communications
Bus & Motor
STARLINK V2M, Unknown motor
Mass
730 kg wet, ~700 kg dry
Launch date (UTC)
2024-12-05 (9 months ago)
Launch vehicle
FALCON 9
Launch site
Air Force Western Test Range (AFWTR)
Object type
Payload
Rocket body
Debris
Shape & HBR
Box + 2 Pan, 14.5 m
Radar Cross Section
33.884 m², Large (>1 m²)

Expand to show TLE details & history
Last TLE update: 13 hours ago

TLE from 13 hours ago
0 STARLINK-32652
1 62234U 24231S   25258.41899811  .00042453  00000-0  14352-2 0  9997
2 62234  53.1606 313.7449 0001953  93.2136 266.9088 15.30247013 44927
Epoch: 2025-09-15T10:03Z
TLE epoch observation values (Epoch: 2025-09-15T10:03:21.436Z)
Latitude
-0.00005°
Longitude
168.28162°
Altitude
476.047 km
Speed
7.629 km/s
True Right ascension
20h 54m 58s
True Declination
0° 00' 00"
Sunlit
Object was in full shadow at epoch
Visualization orbit readout
Latitude
Unknown
Longitude
Unknown
Altitude
Unknown
Speed
Unknown
Apparent Right ascension
Unknown
Apparent Declination
Unknown
Sunlit
N/A
Visualization observer readout
Local Sidereal Time
16:12:06
Azimuth
Unknown
Elevation
Unknown
Doppler factor
Unknown
Orbital elements
Apogee altitude
476.67 km
Perigee altitude
473.993 km
Semi-major axis
6,853.468 km
Eccentricity
0.0002
Inclination
53.1606°
RAAN
313.7449°
Arg. of periapsis
93.2136°
True anomaly
266.88645°
Mean anomaly
266.9088°
Eccentric anomaly
266.89763°
Mean motion
3.82541 °/min
Orbital period
94.11 mins
BSTAR
0.0014352
Loading maneuver chart data...
Computing Atmospheric mass density...
Loading historical data...
Loading historical data...
Loading historical data...
Loading historical data...
Loading historical data...
Loading historical data...
Loading historical data...

Documentation

Showing up to 5 results
|